[[{"header":{"parameterUnit":"m.s-1","parameterCategory":1,"la1":30.2991,"la2":30.254,"lo1":-89.0895,"lo2":-89.0444,"dy":0.0017,"dx":0.0017,"nx":28,"ny":28,"refTime":"2024-05-21T09:00:00:Z","depth":0,"parameterNumber":2,"parameterNumberName":"U-component_of_WINDS"},"data":[0,0,0,0,0,0,0,0,0,0,0,0,0,0,0,0,0,0,0,0,0,0,0,0,0,0,0,0,0,0,0,0,0,0,0,0,0,0,0,0,0,0,0,0,0,0,0,0,0,0,0,0,0,0,0,0,0,0,-2.256,-2.2562,0,-2.271,-2.2712,-2.2714,-2.2738,-2.2737,-2.2735,-2.2734,-2.289,-2.2896,-2.2901,0,0,0,0,0,0,0,0,0,0,0,0,0,-2.2298,-2.2303,-2.256,-2.2562,-2.2564,-2.271,-2.2712,-2.2714,-2.2738,-2.2736,-2.2735,-2.2733,-2.2889,-2.2895,-2.2901,0,0,0,0,0,0,0,0,0,0,0,0,0,-2.2426,-2.2304,-2.256,-2.2593,-2.2598,-2.271,-2.2712,-2.2715,-2.2738,-2.2736,-2.2734,-2.2733,-2.2887,-2.2894,-2.2902,-2.2992,0,0,-2.2927,-2.2931,0,0,0,0,0,0,0,0,-2.2419,-2.2436,-2.2586,-2.2591,-2.2596,-2.2703,-2.2677,-2.2808,-2.2739,-2.2685,-2.2734,-2.2732,-2.283,-2.2843,-2.2875,-2.2999,-2.3006,-2.2928,-2.2933,-2.2936,-2.2939,0,0,0,0,0,0,0,-2.241,-2.243,-2.2619,-2.2589,-2.2595,-2.2602,-2.2618,-2.2702,-2.2767,-2.269,-2.2692,-2.2709,-2.2832,-2.2867,-2.2879,-2.3008,-2.2928,-2.2935,-2.294,-2.2943,-2.3215,-2.3217,0,0,0,0,0,0,-2.2395,-2.2422,-2.2615,-2.2624,-2.2501,-2.2608,-2.2626,-2.2671,-2.2766,-2.2779,-2.2711,-2.271,-2.2854,-2.287,-2.2885,-2.2996,-2.2936,-2.2944,-2.2948,-2.3213,-2.3216,-2.3218,0,0,0,0,0,0,-2.2389,-2.2412,-2.2609,-2.2524,-2.2549,-2.2615,-2.2665,-2.2675,-2.271,-2.2782,-2.2794,-2.2734,-2.2853,-2.2873,-2.2965,-2.3002,-2.2947,-2.2955,-2.321,-2.3214,-2.3217,-2.3219,0,0,0,0,0,0,-2.2381,-2.2409,-2.2443,-2.2524,-2.2554,-2.2685,-2.2667,-2.2679,-2.2723,-2.2724,-2.2807,-2.2819,-2.2853,-2.2953,-2.2973,-2.3012,-2.2961,-2.3207,-2.3212,-2.3216,-2.3216,-2.3222,-2.3228,0,0,0,0,0,-2.2372,-2.2438,-2.2444,-2.2468,-2.2597,-2.2687,-2.2704,-2.2742,-2.2726,-2.2761,-2.2808,-2.2816,-2.2995,-2.2962,-2.2985,-2.3027,-2.3205,-2.321,-2.3215,-2.3213,-2.3221,-2.3228,0,0,0,0,0,0,-2.236,-2.2449,-2.2457,-2.2551,-2.2612,-2.2691,-2.2736,-2.2749,-2.2815,-2.2813,-2.2857,-2.2876,-2.2966,-2.3006,-2.2968,-2.3119,-2.3099,-2.3109,-2.3089,-2.3097,-2.3103,-2.3091,-2.2968,0,0,0,0,0,-2.2368,-2.2433,-2.2508,-2.2584,-2.2614,-2.267,-2.2711,-2.2735,-2.2799,-2.2825,-2.2878,-2.2941,-2.3012,-2.3057,-2.3126,-2.3223,-2.3242,-2.3263,-2.3269,-2.3273,-2.3281,-2.3336,-2.3347,-2.3236,-2.3236,-2.3236,0,0,-2.2386,-2.2443,-2.2481,-2.2583,-2.2632,-2.27,-2.2691,-2.2762,-2.2813,-2.2836,-2.2925,-2.2967,-2.3041,-2.3136,-2.318,-2.3172,-2.3316,-2.328,-2.3283,-2.3289,-2.3343,-2.3353,-2.3362,-2.3239,-2.3239,-2.3238,0,0,-2.2452,-2.2502,-2.257,-2.262,-2.2695,-2.2732,-2.2749,-2.2827,-2.2855,-2.2946,-2.2965,-2.3027,-2.3147,-2.3199,-2.3241,-2.333,-2.334,-2.3351,-2.3381,-2.3434,-2.3443,-2.3451,-2.3482,-2.3493,-2.3359,-2.3359,-2.3359,0,-2.2465,-2.2565,-2.2604,-2.2675,-2.272,-2.2744,-2.2814,-2.2861,-2.2955,-2.2986,-2.2976,-2.3128,-2.3179,-2.3287,-2.3308,-2.3342,-2.3363,-2.3341,-2.3438,-2.3447,-2.3455,-2.3485,-2.3497,-2.336,-2.336,-2.336,-2.336,0,-2.2578,-2.2648,-2.2694,-2.2783,-2.2834,-2.2904,-2.2955,-2.3002,-2.3022,-2.3061,-2.3154,-2.3217,-2.3299,-2.3327,-2.3348,-2.3438,-2.3431,-2.3429,-2.3409,-2.3465,-2.3494,-2.3506,-2.3361,-2.3361,-2.336,-2.336,0,0,-2.2638,-2.2749,-2.2765,-2.2807,-2.2892,-2.2947,-2.302,-2.31,-2.3139,-2.3204,-2.3266,-2.3369,-2.3368,-2.3415,-2.3443,-2.3489,-2.3556,-2.3482,-2.3484,-2.3493,-2.366,-2.366,-2.3673,-2.3564,-2.3566,-2.3568,-2.3653,0,-2.2714,-2.2842,-2.288,-2.2988,-2.3054,-2.3079,-2.3142,-2.3202,-2.3241,-2.3304,-2.3348,-2.3419,-2.3413,-2.3442,-2.3489,-2.3537,-2.359,-2.3532,-2.3623,-2.3626,-2.3602,-2.3688,-2.3688,-2.3765,-2.3665,-2.3667,-2.3669,0,-2.2819,-2.2885,-2.2999,-2.3077,-2.3106,-2.3162,-2.3239,-2.3298,-2.3368,-2.3393,-2.3447,-2.3471,-2.3549,-2.3526,-2.3635,-2.3595,-2.3635,-2.3664,-2.3668,-2.3677,-2.3649,-2.3698,-2.3791,-2.3802,-2.3687,-2.3686,-2.3684,0,-2.2851,-2.2969,-2.3052,-2.3087,-2.318,-2.3219,-2.326,-2.3327,-2.3373,-2.3441,-2.3472,-2.3548,-2.359,-2.365,-2.3694,-2.3673,-2.3799,-2.378,-2.3823,-2.3821,-2.3847,-2.3844,-2.3946,-2.3874,-2.3874,-2.3874,-2.3874,0,-2.2931,-2.3,-2.3068,-2.3119,-2.3198,-2.3242,-2.332,-2.3362,-2.3422,-2.3483,-2.3511,-2.3568,-2.3623,-2.3688,-2.3724,-2.3809,-2.3828,-2.3851,-2.3859,-2.3848,-2.3845,-2.3873,-2.3869,-2.3877,-2.3876,-2.3876,-2.3875,0,-2.2979,-2.3027,-2.312,-2.3201,-2.3223,-2.3278,-2.3347,-2.3399,-2.344,-2.3517,-2.3538,-2.3602,-2.3681,-2.3731,-2.3831,-2.3855,-2.3948,-2.3955,-2.3924,-2.3927,-2.3967,-2.3962,-2.409,-2.4109,-2.4025,-2.4026,-2.4027,0,-2.3026,-2.3079,-2.3166,-2.3208,-2.3249,-2.3317,-2.3364,-2.3411,-2.3459,-2.3543,-2.3585,-2.3665,-2.3731,-2.3855,-2.3912,-2.3989,-2.3998,-2.4037,-2.4009,-2.3996,-2.3998,-2.3993,-2.3999,-2.4041,-2.4042,-2.4042,-2.4043,0,-2.3104,-2.3126,-2.3192,-2.3267,-2.3322,-2.3383,-2.3445,-2.3479,-2.3537,-2.359,-2.3669,-2.3721,-2.3823,-2.3902,-2.3984,-2.4028,-2.4046,-2.4051,-2.4065,-2.4053,-2.4032,-2.4044,-2.3935,-2.4048,-2.4047,-2.4047,-2.4047,-2.4046,-2.3153,-2.3202,-2.327,-2.3343,-2.3395,-2.3452,-2.3505,-2.3552,-2.3619,-2.3705,-2.373,-2.3813,-2.3883,-2.3995,-2.4041,-2.4108,-2.4103,-2.4123,-2.4128,-2.4132,-2.4132,-2.4023,-2.4123,-2.4123,-2.4123,-2.4123,-2.4123,0,-2.3232,-2.3277,-2.3344,-2.3429,-2.3487,-2.3498,-2.3568,-2.3616,-2.3689,-2.3752,-2.3817,-2.3909,-2.3987,-2.405,-2.413,-2.4171,-2.4181,-2.4191,-2.4188,-2.4198,-2.4132,-2.4112,-2.4181,-2.4181,-2.4181,-2.4181,-2.4181,-2.4181,-2.328,-2.3363,-2.3393,-2.3503,-2.3549,-2.363,-2.3668,-2.3722,-2.3773,-2.3874,-2.3939,-2.3979,-2.4043,-2.4129,-2.4201,-2.4217,-2.4245,-2.4253,-2.4271,-2.4209,-2.4202,-2.4196,-2.4177,-2.4259,-2.4259,-2.4331,-2.4332,-2.4332]},{"header":{"parameterUnit":"m.s-1","parameterCategory":1,"la1":30.2991,"la2":30.254,"lo1":-89.0895,"lo2":-89.0444,"dy":0.0017,"dx":0.0017,"nx":28,"ny":28,"refTime":"2024-05-21T09:00:00:Z","depth":0,"parameterNumber":3,"parameterNumberName":"V-component_of_WINDS"},"data":[0,0,0,0,0,0,0,0,0,0,0,0,0,0,0,0,0,0,0,0,0,0,0,0,0,0,0,0,0,0,0,0,0,0,0,0,0,0,0,0,0,0,0,0,0,0,0,0,0,0,0,0,0,0,0,0,0,0,3.167,3.167,0,3.1695,3.1696,3.1696,3.1691,3.1691,3.169,3.169,3.172,3.1721,3.1722,0,0,0,0,0,0,0,0,0,0,0,0,0,3.1621,3.1622,3.167,3.167,3.167,3.1695,3.1696,3.1696,3.1691,3.169,3.169,3.1689,3.1719,3.1721,3.1722,0,0,0,0,0,0,0,0,0,0,0,0,0,3.1644,3.1622,3.167,3.1671,3.1671,3.1695,3.1696,3.1696,3.1691,3.169,3.169,3.1689,3.1719,3.1721,3.1723,3.1748,0,0,3.1728,3.1729,0,0,0,0,0,0,0,0,3.1643,3.1646,3.167,3.1671,3.1671,3.1689,3.169,3.1714,3.1691,3.1684,3.169,3.1689,3.171,3.1713,3.1719,3.175,3.1751,3.1728,3.173,3.173,3.1731,0,0,0,0,0,0,0,3.1641,3.1645,3.168,3.1671,3.1671,3.1672,3.1674,3.1694,3.1701,3.1684,3.1684,3.1687,3.1711,3.1718,3.172,3.1751,3.1728,3.173,3.1731,3.1732,3.1805,3.1806,0,0,0,0,0,0,3.1639,3.1644,3.1679,3.1681,3.1655,3.1673,3.1676,3.1684,3.1701,3.1702,3.1687,3.1687,3.1715,3.1718,3.1721,3.1753,3.173,3.1732,3.1733,3.1804,3.1805,3.1806,0,0,0,0,0,0,3.1638,3.1642,3.1678,3.1662,3.1667,3.1675,3.1684,3.1685,3.1692,3.1703,3.1705,3.1693,3.1714,3.1719,3.1741,3.1754,3.1733,3.1735,3.1803,3.1805,3.1806,3.1816,0,0,0,0,0,0,3.1636,3.1642,3.165,3.1662,3.1668,3.1697,3.1685,3.1686,3.1695,3.1694,3.1709,3.1711,3.1714,3.1739,3.1743,3.1756,3.1736,3.1802,3.1804,3.1805,3.1814,3.1817,3.1819,0,0,0,0,0,3.1635,3.1653,3.1651,3.1655,3.1678,3.1697,3.1701,3.1703,3.1696,3.1705,3.1713,3.171,3.1752,3.1741,3.1746,3.1759,3.1802,3.1803,3.1805,3.1813,3.1816,3.1819,0,0,0,0,0,0,3.1643,3.1654,3.1652,3.1675,3.1685,3.1696,3.1709,3.1707,3.172,3.1719,3.1723,3.1727,3.175,3.1757,3.1745,3.1786,3.1776,3.1779,3.178,3.1783,3.1786,3.1784,3.1738,0,0,0,0,0,3.1648,3.1661,3.167,3.1689,3.1695,3.1701,3.1709,3.171,3.1722,3.1726,3.1735,3.1747,3.1763,3.1774,3.1789,3.1815,3.1819,3.1827,3.183,3.1832,3.1834,3.185,3.1854,3.1812,3.1812,3.1812,0,0,3.1657,3.1665,3.1673,3.1691,3.1699,3.1714,3.1704,3.172,3.1732,3.1729,3.1751,3.1758,3.1772,3.1797,3.1809,3.1804,3.1847,3.1834,3.1836,3.1837,3.1852,3.1856,3.1859,3.1814,3.1813,3.1813,0,0,3.1682,3.1689,3.1706,3.1714,3.1726,3.173,3.1734,3.1746,3.175,3.1771,3.177,3.1785,3.1812,3.1822,3.1831,3.186,3.1859,3.1865,3.1879,3.1893,3.1897,3.19,3.191,3.1914,3.1868,3.1868,3.1868,0,3.1693,3.1714,3.1715,3.1731,3.1739,3.1736,3.1754,3.1762,3.1779,3.1786,3.178,3.1814,3.1824,3.1851,3.1858,3.1865,3.1871,3.1863,3.1896,3.1899,3.1902,3.1912,3.1916,3.1868,3.1868,3.1868,3.1868,0,3.1726,3.1741,3.1753,3.1768,3.1778,3.1795,3.18,3.181,3.1811,3.1816,3.1839,3.185,3.1867,3.1874,3.1875,3.1902,3.1899,3.1895,3.1885,3.1906,3.1916,3.192,3.1869,3.1869,3.1869,3.1869,0,0,3.1757,3.1772,3.1777,3.1784,3.1797,3.1809,3.1827,3.1842,3.1851,3.1864,3.1879,3.1902,3.1898,3.1908,3.1911,3.1924,3.1947,3.1918,3.1918,3.1923,3.1978,3.1981,3.1985,3.1946,3.1947,3.1947,3.1977,0,3.1783,3.1812,3.1814,3.1841,3.1855,3.1852,3.1868,3.1878,3.1884,3.1898,3.1905,3.1921,3.1914,3.192,3.1933,3.1941,3.1958,3.1939,3.1961,3.1962,3.1958,3.1991,3.1994,3.2021,3.1981,3.1981,3.1982,0,3.1818,3.1829,3.1857,3.1868,3.1874,3.1888,3.1903,3.1916,3.1928,3.1932,3.1943,3.1944,3.1963,3.1952,3.198,3.1967,3.1977,3.1982,3.1983,3.1985,3.1973,3.1994,3.203,3.2034,3.1988,3.1987,3.1987,0,3.1838,3.1861,3.188,3.1886,3.19,3.1909,3.1916,3.1928,3.1937,3.1951,3.1958,3.1974,3.1983,3.1996,3.2002,3.1994,3.203,3.2019,3.2034,3.2034,3.2042,3.2041,3.2079,3.2048,3.2048,3.2047,3.2047,0,3.1867,3.1884,3.1889,3.1901,3.1921,3.1923,3.1943,3.1949,3.196,3.1974,3.1974,3.1988,3.1995,3.201,3.2015,3.2037,3.2042,3.2046,3.2047,3.2046,3.2045,3.2052,3.205,3.2049,3.2048,3.2048,3.2048,0,3.1892,3.1896,3.1917,3.1929,3.1932,3.1946,3.1956,3.1969,3.1974,3.1992,3.1997,3.2006,3.2024,3.2031,3.2053,3.2057,3.2083,3.2082,3.2078,3.2078,3.2092,3.2091,3.2136,3.2143,3.2107,3.2107,3.2107,0,3.191,3.1923,3.1936,3.1944,3.1951,3.1965,3.1975,3.1978,3.1988,3.2004,3.2015,3.2032,3.2047,3.2076,3.2086,3.2103,3.2103,3.2118,3.2106,3.2105,3.2104,3.2103,3.2105,3.212,3.2121,3.2121,3.2121,0,3.1943,3.1944,3.1957,3.197,3.1981,3.1993,3.2004,3.2012,3.2017,3.2029,3.2046,3.2057,3.208,3.2098,3.2116,3.2124,3.2124,3.2125,3.2129,3.2128,3.2125,3.2127,3.2084,3.2124,3.2124,3.2123,3.2123,3.2123,3.1965,3.1977,3.1987,3.2001,3.201,3.202,3.2032,3.2039,3.2053,3.207,3.2072,3.2092,3.2105,3.2129,3.2138,3.2154,3.2151,3.2157,3.2158,3.216,3.2161,3.2122,3.2158,3.2158,3.2158,3.2157,3.2157,0,3.1998,3.2004,3.2017,3.2032,3.2044,3.2041,3.2053,3.2064,3.208,3.2092,3.2105,3.2126,3.2144,3.2155,3.2173,3.2184,3.2184,3.2188,3.2188,3.219,3.2163,3.2158,3.2187,3.2187,3.2187,3.2187,3.2187,3.2187,3.2016,3.2035,3.2038,3.2062,3.2068,3.2086,3.2093,3.2103,3.2113,3.2135,3.2149,3.2155,3.2167,3.2186,3.2203,3.2205,3.2212,3.2217,3.222,3.2195,3.2191,3.2189,3.2183,3.2218,3.2218,3.2245,3.2245,3.2245]}]]